Location: Brunembert
(50.7122°N, 1.8935°E)
Time: 05:09:59
(UTC+00:00)

Cosmos 1500 Rocket - Pass Details

Date: 22 April 2021
Orbit: 604 x 630 km, 82.5° (Epoch: 06 May)

Event Time Altitude Azimuth Distance (km) Brightness Sun altitude
Rises 22:03:49 0° 347° (NNW) 2,935 8.3 -22.6°
Reaches altitude 10° 22:06:05 10° 344° (NNW) 2,021 7.3 -22.8°
Maximum altitude 22:10:31 63° 264° (W) 705 3.8 -23.1°
Enters shadow 22:11:06 56° 225° (SW) 748 3.8 -23.1°
